AirNav   Duncan Aviation - Near you to keep you flying
 
 426 users online  

19KS Schultz Field Heliport
Chanute, Kansas, USA

GOING TO CHANUTE?


FAA INFORMATION EFFECTIVE 08 SEPTEMBER 2022

Location

FAA Identifier: 19KS
Lat/Long: 37-37-12.1790N 095-27-30.9300W
37-37.202983N 095-27.515500W
37.6200497,-95.4585917
(estimated)
Elevation: 940 ft. / 287 m (estimated)
Variation: 06E (1985)
From city: 3 miles S of CHANUTE, KS
Time zone: UTC -5 (UTC -6 during Standard Time)
Zip code: 66720

Heliport Operations

Heliport use: Private use. Permission required prior to landing
Activation date: 10/1981
Control tower: no
ARTCC: KANSAS CITY CENTER
FSS: WICHITA FLIGHT SERVICE STATION
Attendance: UNATNDD
Wind indicator: yes
Segmented circle: yes

Heliport Communications

WX ASOS at CNU (3 nm NW): 127.075 (620-431-6781)
WX AWOS-3 at K88 (15 nm N): 128.325 (620-365-1466)
WX ASOS at PPF (18 nm S): 118.175 (620-336-3834)

Nearby radio navigation aids

VOR radial/distance  VOR name  Freq  Var
CNUr088/6.4CHANUTE VOR/DME109.2005E

Heliport Services

Runway Information

Helipad H1

Dimensions: 25 x 25 ft. / 8 x 8 m
Surface: concrete
Latitude: 37-37.203000N
Longitude: 095-27.515500W
Elevation: 940.0 ft.
Traffic pattern: leftleft

Heliport Ownership and Management from official FAA records

Ownership: Privately-owned
Owner: JOHN G SCHULTZ
17275 ELK ROAD
CHANUTE, KS 66720
Phone 620-431-6459
Manager: JOHN G SCHULTZ
17275 ELK ROAD
CHANUTE, KS 66720
Phone 620-431-6459

Heliport Operational Statistics

Aircraft based on the field: 2
Helicopters: 1
Ultralights: 1
    

Additional Remarks

FOR CD CTC KANSAS CITY ARTCC AT 913-254-8508.

Instrument Procedures

There are no published instrument procedures at 19KS.

Some nearby airports with instrument procedures:

KCNU - Chanute Martin Johnson Airport (3 nm NW)
2K7 - Neodesha Municipal Airport (14 nm SW)
K88 - Allen County Airport (15 nm N)
KPPF - Tri-City Airport (18 nm S)
KIDP - Independence Municipal Airport (32 nm SW)
 
Loc | Ops | Rwys | IFR | FBO | Links
Com | Nav | Svcs | Stats | Notes
Area around 19KS (Schultz Field Heliport)
 
Road maps at: MapQuest Bing Google
 
Aerial photo
No photo
 
Sectional chart

 
Airport distance calculator
Flying to Schultz Field Heliport? Find the distance to fly.

From to 19KS

Sunrise and sunset
Times for 01-Oct-2022
 Local
(UTC-5)
 Zulu
(UTC)
Morning civil twilight06:5211:52
Sunrise07:1812:18
Sunset19:0500:05
Evening civil twilight19:3100:31

Current date and time
Zulu (UTC)  01-Oct-2022 07:57:25
Local (UTC-5)  01-Oct-2022 02:57:25
 
METAR
KCNU 
3nm NW 
010752Z AUTO 10003KT 10SM CLR 09/03 A3008 RMK AO2 SLP181 T00940033
KK88 
15nm N 
010735Z AUTO 10005KT 10SM CLR 09/05 A3010 RMK AO1 T00880048
KPPF 
17nm S 
010752Z AUTO 00000KT 10SM CLR 12/02 A3009 RMK AO2 SLP182 T01220022
TAF
KCNU 
3nm NW 
010520Z 0106/0206 11006KT P6SM SCT250 FM011800 08007KT P6SM FEW250
NOTAMs
Click for the latest NOTAMs
NOTAMs are issued by the DoD/FAA and will open in a separate window not controlled by AirNav.

 

 
 

Would you like to see your business listed on this page?

 If your business provides an interesting product or service to pilots, flight crews, aircraft, or users of the Schultz Field Heliport, you should consider listing it here.  To start the listing process, click on the button below
 
Add a business
 

Other Pages about Schultz Field Heliport

Update a link
 
Copyright © AirNav, LLC. All rights reserved. Privacy Policy  Contact